www.pogodaiklimat.ru

Погода и климат >> Архив погоды >> Россия >> Костромская область >> Пыщуг


ПОГОДА в Пыщуге

  • Прогноз погоды в Пыщуге
  • Монитор погоды в Пыщуге
  • Климат города

АРХИВ ПОГОДЫ в Пыщуге

Время (UTC), дата Ветер
(напр.,м/с)
 
Видим.   Явления Облачность Т
(С)
Тd
(С)
f
(%)
Тe
(С)
Тes
(С)
Комфортность P
(гПа)
Po
(гПа)
Тmin
(С)
Tmax
(С)
R
(мм)
R24
(мм)
S
(см)
18 12.07 С 2 19 км {ливн. осадки} 10/10 600 м
[Cb cap]
+18.2 +16.9 92 +19 +19 1012.0 993.6
21 12.07 С 2 20 км {ливн. осадки} 10/4 600 м
[Cb cap Ac inh Ci sp]
+17.6 +16.8 95 +18 +18 1012.0 993.6
00 13.07 СВ 2 20 км {ливн. осадки} 10/5 600 м
[Cb cap Ac inh]
+17.7 +16.9 95 +18 +18 1011.7 993.3
03 13.07 С 2 18 км слабый ливневой дождь 10/10 600 м
[Cb cap]
+17.7 +17.0 96 +18 +18 1011.7 993.3 +17.2 1
06 13.07 С 2 17 км слабый ливневой дождь 10/10 600 м
[Cb cap]
+19.0 +18.2 95 +21 +21 комфорт 1011.8 993.5
09 13.07 СЗ 1 18 км слабый ливневой дождь 10/10 600 м
[Cb cap]
+20.3 +18.5 89 +25 +25 комфорт 1011.6 993.4
12 13.07 С 3 19 км гроза, ливневой дождь 10/10 600 м
[Cb cap]
+22.7 +19.2 81 +29 +29 очень
душно
1010.7 992.7
15 13.07 СЗ 1
{11}
18 км в посл. час ливневой дождь {гроза} 9/8 600 м
[Cb cap Ci sp]
+18.5 +17.4 93 +20 +21 1011.1 992.7 +23.6 5
18 13.07 В 2 23 км {гроза, ливн. осадки} 8/4 600 м
[Cb cap Ac trans Ci sp]
+17.5 +17.0 97 +18 +18 1011.4 993.0
21 13.07 В 2 20 км 6/3 600 м
[Sc Ac trans Ci sp]
+16.3 +16.1 99 +16 +16 1011.0 992.5
00 14.07 С 2 20 км 3/0
[Ci sp]
+15.3 +15.1 99 +15 +15 1010.6 992.1
03 14.07 СВ 1 21 км 4/0
[Ac trans Ci sp]
+16.7 +16.0 96 +18 +20 1011.0 992.5 +15.2
06 14.07 В 2 24 км 5/3 600 м
[Cu hum Ci sp]
+22.6 +18.0 75 +28 +34 душно 1010.7 992.6
09 14.07 В 2 25 км 9/9 600 м
[Cu med, cong]
+23.5 +17.7 70 +28 +29 душно 1010.3 992.4
12 14.07 ЮВ 2 26 км 8/4 600 м
[Cu med, cong Ac trans Ci sp]
+25.4 +16.5 58 +29 +33 душно 1009.3 991.5
15 14.07 штиль 0 22 км в посл. час гроза {ливн. осадки} 10/5 600 м
[Cb cap Ac inh]
+22.2 +18.6 80 +27 +28 душно 1009.6 991.6 +26.2 0.4
18 14.07 штиль 0 23 км 9/4 600 м
[Cb cap Ac inh Ci sp]
+20.8 +19.0 89 +25 +25 комфорт 1009.4 991.4
21 14.07 штиль 0 20 км 5/0
[Ci sp]
+18.0 +17.0 94 +18 +18 1009.9 991.6
00 15.07 штиль 0 22 км 8/0
[Ac trans Ci sp]
+16.7 +14.6 87 +17 +17 1011.3 992.8
03 15.07 СВ 1 23 км 8/0
[Ac trans Ci sp]
+18.5 +17.2 92 +20 +22 1010.9 992.5 +16.6
06 15.07 Ю 1 23 км 6/3 600 м
[Cu med, cong Ac trans Ci sp]
+23.6 +18.2 72 +28 +34 душно 1010.5 992.5
09 15.07 ЮЗ 2 24 км 8/5 600 м
[Cu med, cong Ac trans Ci sp]
+25.7 +18.0 62 +30 +35 душно 1010.4 992.5
12 15.07 Ю 1 25 км 8/5 600 м
[Cb cap Ci sp]
+26.9 +17.7 57 +31 +36 душно 1009.7 992.0
15 15.07 ЮВ 1 25 км в посл. час ливневой дождь 6/4 300 м
[Cb cap Ci sp]
+25.1 +20.2 74 +31 +32 очень
душно
1009.8 992.0 +28.6 0.4
18 15.07 СВ 2 22 км {ливн. осадки} 8/3 600 м
[Sc Ac inh Ci sp]
+22.6 +19.7 84 +29 +29 очень
душно
1011.0 993.0
21 15.07 штиль 0 20 км 6/0
[Ac trans Ci sp]
+19.3 +18.0 92 +21 +21 комфорт 1011.3 993.0
00 16.07 СВ 1 12 км туман поземный 3/0
[Ac trans]
+17.9 +17.3 96 +19 +19 1011.9 993.5
03 16.07 СВ 1 14 км 3/0
[Ci sp]
+20.2 +18.7 91 +25 +27 комфорт 1012.2 994.0 +16.7
06 16.07 СВ 1 20 км 3/0
[Ci sp]
+25.6 +20.2 72 +32 +42 очень
душно
1010.7 992.8
09 16.07 ЮЗ 2 23 км 8/6 600 м
[Cu med, cong Ci sp]
+27.5 +19.9 63 +33 +38 очень
душно
1010.8 993.0
12 16.07 СВ 2 18 км гроза, ливневой дождь 10/10 600 м
[Cb cap]
+20.9 +19.3 91 +26 +26 душно 1011.8 993.6
15 16.07 В 2 25 км гроза без осадков {ливн. осадки} 8/5 600 м
[Cb cap Ac trans Ci sp]
+23.6 +18.9 75 +28 +29 душно 1011.8 993.8 +28.2 0.6
18 16.07 С 1 23 км {гроза} 4/0
[Ac trans Ci sp]
+20.9 +18.2 85 +26 +26 душно 1012.3 994.1
21 16.07 С 2 20 км 3/0
[Ci sp]
+19.3 +17.7 90 +22 +22 комфорт 1012.6 994.3
00 17.07 С 1 21 км 3/0
[Ci sp]
+18.9 +17.7 93 +21 +21 комфорт 1012.4 994.1
03 17.07 С 2 20 км 3/0
[Ci sp]
+19.8 +17.7 88 +23 +25 комфорт 1012.6 994.3 +17.7
06 17.07 В 3 22 км 5/4 600 м
[Cu hum Ci sp]
+23.7 +19.0 75 +28 +33 душно 1012.7 994.7
09 17.07 СВ 3 23 км 9/9 600 м
[Cb cap]
+24.8 +18.5 68 +29 +31 душно 1011.1 993.2
12 17.07 В 3
{10}
21 км 10/10 600 м
[Cb cap]
+23.2 +20.0 82 +30 +30 очень
душно
1011.7 993.7
15 17.07 В 4 22 км 10/10 600 м
[Cb cap]
+23.2 +16.5 66 +28 +28 душно 1011.0 993.0 +25.8
18 17.07 В 2 21 км 8/0
[Ac trans Ci sp]
+21.2 +17.5 79 +25 +25 комфорт 1011.2 993.0
21 17.07 СВ 2 20 км 10/10 600 м
[Cb cap]
+19.6 +18.0 90 +23 +23 комфорт 1010.9 992.6
00 18.07 СВ 3 20 км {ливн. осадки} 10/10 600 м
[Cb cap]
+19.3 +18.0 92 +22 +22 комфорт 1010.3 992.1
03 18.07 СВ 3 23 км {ливн. осадки} 10/8 600 м
[Sc Ac trans Ci sp]
+18.9 +16.9 88 +20 +21 1010.2 991.9 +18.5 0.4
06 18.07 СВ 3 22 км {ливн. осадки} 10/10 600 м
[Sc]
+19.9 +17.4 86 +23 +23 комфорт 1011.0 992.7
09 18.07 СВ 3 23 км 9/8 600 м
[Cu Sc Ci sp]
+23.6 +17.5 69 +28 +30 душно 1010.0 992.1
12 18.07 СВ 5
{10}
24 км 10/5 600 м
[Cu med, cong Ci sp]
+25.7 +17.7 61 +30 +32 душно 1009.2 991.4
15 18.07 СВ 1
{10}
17 км {ливн. осадки} 10/8 600 м
[Cb cap Ci sp]
+21.2 +16.8 76 +25 +25 комфорт 1009.8 991.7 +26.0 0.0
18 18.07 В 4 21 км {ливн. осадки} 9/3 600 м
[Sc Ac trans Ci sp]
+21.7 +18.2 80 +26 +26 душно 1010.0 992.0
21 18.07 СВ 4 20 км 9/8 600 м
[Sc Ci sp]
+20.4 +15.9 75 +23 +23 комфорт 1009.4 991.2
00 19.07 СВ 3 22 км 8/0
[Ac trans Ci sp]
+18.3 +15.9 86 +19 +19 1009.3 991.0
03 19.07 СВ 2 19 км в посл. час ливневой дождь 10/10 600 м
[Sc]
+18.3 +16.3 88 +19 +19 1010.3 992.0 +18.1 0.0
06 19.07 СВ 2 21 км {ливн. осадки} 10/10 600 м
[Cb cap]
+20.2 +17.1 82 +24 +24 комфорт 1009.2 991.5
09 19.07 СВ 4 19 км слабый ливневой дождь 10/10 600 м
[Cb cap]
+20.4 +17.1 81 +24 +24 комфорт 1009.6 991.5
12 19.07 СВ 3
{11}
17 км слабый ливневой дождь 10/10 600 м
[Cb cap]
+20.4 +18.0 86 +24 +24 комфорт 1009.7 991.6

 

Местоположение метеостанции Пыщуг (Костромская область, Россия): широта 58.88 долгота 45.71 высота над уровнем моря 157 м.

В архиве по умолчанию представлена погода в Пыщуге за последнюю неделю. Архивные данные за месяц целиком и за предыдущие месяцы, начиная с января 2011 года, Вы можете получить, выбрав интересующий диапазон дат из раскрывающегося списка и нажав кнопку "Ввод!".


*Определитесь, кто Вы:
робот инопланетянин человек

Внимание! Время в таблицах - всемирное. Для получения местного времени необходимо прибавить поправку, которая в Пыщуге равна 3 ч.

Смотрите также архив погоды в соседних городах и на ближайших метеорологических станциях:

Погода в Шарье (Костромская область, Россия) (58 км)
Погода в Вохме (Костромская область, Россия) (61 км)
Погода в Никольске (Вологодская область, Россия) (74 км)
Погода в Кологриве (Костромская область, Россия) (80 км)
Погода в Мантурово (Костромская область, Россия) (82 км)
Погода в Шабалино (Кировская область, Россия) (104 км)
Погода в Ветлуге (Нижегородская область, Россия) (115 км)
Погода в Даровском (Кировская область, Россия) (131 км)
Погода в Шахунье (Нижегородская область, Россия) (146 км)
Погода в Николо-Поломе (Костромская область, Россия) (147 км)

Пояснения к столбцам:

Ветер - указаны скорость ветра в м/с - средняя за 10 мин, порывы в срок и между сроками (в фигурных скобках) и направление, откуда дует ветер: С - северный, СВ - северо-восточный, В - восточный, ЮВ - юго-восточный, Ю - южный, ЮЗ - юго-западный, З - западный, СЗ - северо-западный.
Видимость - горизонтальная дальность видимости в метрах или километрах. При видимости от 1 до 10 км при отсутствии осадков обычно наблюдается дымка, при ухудшении видимости до 1 км и менее - туман. В сухую погоду видимость может ухудшаться дымом, пылью или мглою.
Явления - указаны атмосферные явления, наблюдавшиеся в срок или в последний час перед сроком; фигурными скобками обозначены явления, наблюдавшиеся между сроками (за 1-3 часа до срока); квадратными скобками обозначены град или гололедные отложения с указанием их диаметра в мм.
Облачность - указаны через наклонную черту общая и нижняя облачность в баллах и высота нижней границы облаков в метрах; квадратными скобками обозначены формы облаков: Ci - перистые, Cs - перисто-слоистые, Cc - перисто-кучевые, Ac - высококучевые, As - высокослоистые, Sc - слоисто-кучевые, Ns - слоисто-дождевые, Cu - кучевые, Cb - кучево-дождевые. Подробнее классификацию облаков см. в Атласе облаков (PDF).
T - Температура воздуха - температура, измеренная на высоте 2 м над землей.
Td - Температура точки росы - температура, при понижении до которой содержащийся в воздухе водяной пар достигнет насыщения.
f - Относительная влажность воздуха - влажноcть воздуха, измеренная на высоте 2 м над землей.
Te - Эффективная температура - температура, которую ощущает одетый по сезону человек в тени. Характеристика душности погоды. При расчете учитывается влияние влажности воздуха и скорости ветра на теплоощущения человека.
Tes - Эффективная температура на солнце - температура, которую ощущает человек, с поправкой на солнечный нагрев. Характеристика знойности погоды. Зависит от высоты солнца над горизонтом, облачности и скорости ветра. Ночью, в пасмурную погоду, а также при ветре 12 м/с и более поправка равна нулю.
P - Атмосферное давление - приведенное к уровню моря атмосферное давление.
Po - Атмосферное давление - измеренное на уровне метеостанции атмосферное давление.
Tmin - Минимальная температура - минимум температуры воздуха на высоте 2 м над землей.
Tmax - Максимальная температура - максимум температуры воздуха на высоте 2 м над землей.
R - Количество осадков - Количество выпавших осадков за период времени, мм. При наведении курсора мыши на число - период времени, за который выпало указанное количество осадков.
R24 - Количество осадков - Количество выпавших осадков за 24 часа, мм.
S - Снежный покров - Высота снежного покрова, см. При наведении курсора мыши на число - состояние снежного покрова и степень покрытия местности в баллах.